Home   Weather   Cheltenham   Past weeks
Flag for United Kingdom

Past Weather in Cheltenham, England, United Kingdom — Yesterday and Last 2 Weeks

Now
61 °F

Cool.


Feels Like: 61 °F
Forecast: 71 / 55 °F
Wind: 6 mph from Northwest

Location: Little Rissington

Current Time: Jul 17, 2019 at 2:03:39 am

Latest Report: Jul 17, 2019 at 1:00 am


Visibility: 15 mi

Pressure: 30.03 "Hg

Humidity: 83%

Dew Point: 55 °F

Location of CheltenhamLocation

Past Weather in Cheltenham — Graph

°F

Cheltenham Temperature Yesterday

Maximum temperature yesterday: 76 °F (at 5:00 pm)
Minimum temperature yesterday: 52 °F (at 5:00 am)
Average temperature yesterday: 64 °F

High & Low Weather Summary for the Past Weeks

 TemperatureHumidityPressure
High76 °F (Jul 16, 5:00 pm)100% (Jul 8, 8:00 am)30.34 "Hg (Jul 8, 8:00 am)
Low47 °F (Jul 2, 4:00 am)36% (Jul 16, 4:00 pm)29.88 "Hg (Jul 11, 8:00 pm)
Average61 °F75%30.12 "Hg
* Reported Jul 2 12:00 am — Jul 17 12:00 am, Cheltenham. Weather by CustomWeather, © 2019

Note: Actual official high and low records may vary slightly from our data, if they occured in-between our weather recording intervals... More about our weather records

Advertising

Cheltenham Weather History for the Previous 24 Hours

Scroll right to see more
 ConditionsComfort  
Time TempWeatherWind HumidityBarometerVisibility
12:00 am
Wed, Jul 17
61 °FCool.6 mph82%30.04 "Hg17 mi
11:00 pm
Tue, Jul 16
62 °FCool.6 mph80%30.04 "Hg18 mi
10:00 pm62 °FMild.8 mph79%30.03 "Hg19 mi
9:00 pm65 °FMild.8 mph72%30.03 "Hg22 mi
8:00 pm68 °FMild.8 mph67%30.03 "Hg22 mi
7:00 pm70 °FMild.12 mph61%30.02 "Hg25 mi
6:00 pm74 °FMild.3 mph40%30.02 "Hg43 mi
5:00 pm76 °FMild.3 mph40%30.02 "Hg40 mi
4:00 pm76 °FMild.5 mph36%30.03 "Hg47 mi
3:00 pm74 °FMild.6 mph40%30.05 "Hg47 mi
2:00 pm74 °FMild.5 mph44%30.06 "Hg47 mi
1:00 pm71 °FMild.3 mph53%30.07 "Hg28 mi
11:00 am71 °FMild.5 mph57%30.09 "Hg31 mi
10:00 am68 °FMild.2 mph66%30.10 "Hg22 mi
9:00 am63 °FMild.2 mph78%30.11 "Hg19 mi
8:00 am57 °FCool.5 mph87%30.13 "Hg11 mi
7:00 am55 °FCool.3 mph93%30.13 "Hg9 mi
6:00 am53 °FCool.6 mph91%30.13 "Hg9 mi
5:00 am52 °FCool.6 mph93%30.13 "Hg9 mi
4:00 am52 °FCool.2 mph95%30.13 "Hg12 mi
3:00 am52 °FCool.2 mph91%30.14 "Hg12 mi
2:00 am55 °FCool.6 mph83%30.15 "Hg17 mi
Weather by CustomWeather, © 2019

See weather overview